Location: ????
(32.1228°N, 34.8377°E)
Time: 17:11:17
(UTC+00:00)

Cosmos 1437 Rocket - Pass Details

Date: 21 September 2020
Orbit: 506 x 562 km, 81.2° (Epoch: 24 October)

Event Time Altitude Azimuth Distance (km) Brightness Sun altitude
Rises 02:08:15 0° 171° (S) 2,591 6.2 -17.7°
Reaches altitude 10° 02:10:27 10° 164° (SSE) 1,712 5.4 -17.2°
Maximum altitude 02:13:58 39° 94° (E) 767 4.1 -16.5°
Drops below altitude 10° 02:17:31 10° 24° (NNE) 1,735 5.8 -15.7°
Sets 02:19:45 0° 17° (NNE) 2,633 6.7 -15.3°
